Time,TemperatureF,DewpointF,PressureIn,WindDirection,WindDirectionDegrees,WindSpeedMPH,WindSpeedGustMPH,Humidity,HourlyPrecipIn,Conditions,Clouds,dailyrainin,SoftwareType,DateUTC
2013-05-08 00:02:00,42.0,42.0,29.90,NNW,348,4.0,12.0,98,0.01,,,0.38,weatherlink.com 1.10,2013-05-08 04:02:00,
2013-05-08 00:17:00,42.1,42.0,29.90,West,259,3.0,11.0,98,0.01,,,0.38,weatherlink.com 1.10,2013-05-08 04:17:00,
2013-05-08 00:32:00,42.1,42.0,29.90,WSW,257,6.0,11.0,98,0.02,,,0.39,weatherlink.com 1.10,2013-05-08 04:32:00,
2013-05-08 00:47:00,42.2,42.0,29.90,West,267,9.0,12.0,98,0.01,,,0.39,weatherlink.com 1.10,2013-05-08 04:47:00,
2013-05-08 01:02:00,42.2,42.0,29.90,NW,311,4.0,15.0,98,0.01,,,0.39,weatherlink.com 1.10,2013-05-08 05:02:00,
2013-05-08 01:17:00,42.1,42.0,29.90,SW,227,4.0,8.0,98,0.01,,,0.39,weatherlink.com 1.10,2013-05-08 05:17:00,
2013-05-08 01:32:00,42.1,42.0,29.89,WSW,252,4.0,11.0,99,0.01,,,0.40,weatherlink.com 1.10,2013-05-08 05:32:00,
2013-05-08 01:47:00,42.1,42.0,29.89,SW,219,4.0,8.0,99,0.01,,,0.40,weatherlink.com 1.10,2013-05-08 05:47:00,
2013-05-08 02:02:00,42.2,42.0,29.88,West,268,1.0,10.0,99,0.01,,,0.40,weatherlink.com 1.10,2013-05-08 06:02:00,
2013-05-08 02:17:00,42.3,42.0,29.88,NW,314,3.0,9.0,98,0.01,,,0.40,weatherlink.com 1.10,2013-05-08 06:17:00,
2013-05-08 02:32:00,42.4,42.0,29.88,West,281,3.0,7.0,98,0.01,,,0.41,weatherlink.com 1.10,2013-05-08 06:32:00,
2013-05-08 02:47:00,42.3,42.0,29.87,West,273,0.0,9.0,98,0.01,,,0.41,weatherlink.com 1.10,2013-05-08 06:47:00,
2013-05-08 03:02:00,42.5,42.0,29.87,WNW,299,2.0,6.0,99,0.01,,,0.41,weatherlink.com 1.10,2013-05-08 07:02:00,
2013-05-08 03:17:00,42.7,43.0,29.88,WNW,290,4.0,6.0,99,0.01,,,0.41,weatherlink.com 1.10,2013-05-08 07:17:00,
2013-05-08 03:32:00,42.7,43.0,29.88,NNW,331,3.0,7.0,99,0.01,,,0.42,weatherlink.com 1.10,2013-05-08 07:32:00,
2013-05-08 03:47:00,42.7,43.0,29.88,NNW,331,5.0,9.0,99,0.01,,,0.42,weatherlink.com 1.10,2013-05-08 07:47:00,
2013-05-08 04:02:00,42.7,43.0,29.88,NW,304,6.0,8.0,99,0.01,,,0.42,weatherlink.com 1.10,2013-05-08 08:02:00,
2013-05-08 04:17:00,42.7,43.0,29.88,North,5,2.0,8.0,99,0.01,,,0.42,weatherlink.com 1.10,2013-05-08 08:17:00,
2013-05-08 04:32:00,42.7,43.0,29.88,WNW,300,2.0,7.0,99,0.00,,,0.42,weatherlink.com 1.10,2013-05-08 08:32:00,
2013-05-08 04:47:00,42.7,43.0,29.88,NW,309,2.0,5.0,99,0.01,,,0.43,weatherlink.com 1.10,2013-05-08 08:47:00,
2013-05-08 05:02:00,42.7,43.0,29.89,NW,319,0.0,8.0,99,0.01,,,0.00,weatherlink.com 1.10,2013-05-08 09:02:00,
2013-05-08 05:17:00,42.7,43.0,29.89,WSW,252,0.0,6.0,99,0.01,,,0.00,weatherlink.com 1.10,2013-05-08 09:17:00,
2013-05-08 05:33:00,42.7,43.0,29.89,WNW,300,2.0,5.0,99,0.01,,,0.00,weatherlink.com 1.10,2013-05-08 09:33:00,
2013-05-08 05:48:00,42.6,42.0,29.89,NW,304,0.0,10.0,99,0.00,,,0.00,weatherlink.com 1.10,2013-05-08 09:48:00,
2013-05-08 06:03:00,42.7,43.0,29.89,WNW,286,1.0,12.0,99,0.01,,,0.01,weatherlink.com 1.10,2013-05-08 10:03:00,
2013-05-08 06:18:00,42.6,42.0,29.89,West,266,0.0,5.0,99,0.01,,,0.01,weatherlink.com 1.10,2013-05-08 10:18:00,
2013-05-08 06:33:00,42.9,43.0,29.90,NW,318,1.0,7.0,99,0.01,,,0.01,weatherlink.com 1.10,2013-05-08 10:33:00,
2013-05-08 06:48:00,43.1,43.0,29.90,ENE,59,1.0,6.0,99,0.01,,,0.01,weatherlink.com 1.10,2013-05-08 10:48:00,
2013-05-08 07:03:00,43.2,43.0,29.91,NNE,25,1.0,5.0,99,0.00,,,0.01,weatherlink.com 1.10,2013-05-08 11:03:00,
2013-05-08 07:18:00,43.2,43.0,29.91,WSW,256,4.0,8.0,99,0.01,,,0.02,weatherlink.com 1.10,2013-05-08 11:18:00,
2013-05-08 07:33:00,43.2,43.0,29.92,NW,321,3.0,10.0,99,0.01,,,0.02,weatherlink.com 1.10,2013-05-08 11:33:00,
2013-05-08 07:48:00,43.3,43.0,29.92,North,360,1.0,7.0,99,0.01,,,0.02,weatherlink.com 1.10,2013-05-08 11:48:00,
2013-05-08 08:03:00,43.5,43.0,29.92,NNW,345,2.0,7.0,99,0.00,,,0.02,weatherlink.com 1.10,2013-05-08 12:03:00,
2013-05-08 08:18:00,43.7,44.0,29.92,NW,310,2.0,8.0,99,0.00,,,0.02,weatherlink.com 1.10,2013-05-08 12:18:00,
2013-05-08 08:33:00,43.9,44.0,29.92,NE,55,0.0,9.0,99,0.01,,,0.03,weatherlink.com 1.10,2013-05-08 12:33:00,
2013-05-08 08:48:00,43.9,44.0,29.92,West,268,3.0,8.0,99,0.01,,,0.03,weatherlink.com 1.10,2013-05-08 12:48:00,
2013-05-08 09:03:00,44.1,44.0,29.92,NW,309,3.0,7.0,99,0.01,,,0.03,weatherlink.com 1.10,2013-05-08 13:03:00,
2013-05-08 09:18:00,44.1,44.0,29.93,ENE,65,4.0,11.0,99,0.01,,,0.03,weatherlink.com 1.10,2013-05-08 13:18:00,
2013-05-08 09:33:00,44.3,44.0,29.93,NNW,329,4.0,11.0,99,0.00,,,0.03,weatherlink.com 1.10,2013-05-08 13:33:00,
2013-05-08 09:48:00,44.5,44.0,29.93,North,5,1.0,9.0,99,0.01,,,0.04,weatherlink.com 1.10,2013-05-08 13:48:00,
2013-05-08 10:03:00,44.5,44.0,29.93,NNE,20,0.0,9.0,99,0.01,,,0.04,weatherlink.com 1.10,2013-05-08 14:03:00,
2013-05-08 10:18:00,44.8,45.0,29.93,NNE,22,1.0,12.0,99,0.01,,,0.04,weatherlink.com 1.10,2013-05-08 14:18:00,
2013-05-08 10:33:00,44.8,45.0,29.93,NW,313,6.0,9.0,99,0.01,,,0.04,weatherlink.com 1.10,2013-05-08 14:33:00,
2013-05-08 10:48:00,45.1,45.0,29.94,North,360,5.0,9.0,99,0.00,,,0.04,weatherlink.com 1.10,2013-05-08 14:48:00,
2013-05-08 11:03:00,45.2,45.0,29.94,WNW,284,2.0,9.0,99,0.01,,,0.05,weatherlink.com 1.10,2013-05-08 15:03:00,
2013-05-08 11:18:00,45.5,45.0,29.94,NW,323,1.0,12.0,99,0.01,,,0.05,weatherlink.com 1.10,2013-05-08 15:18:00,
2013-05-08 11:33:00,45.4,45.0,29.94,WNW,294,2.0,13.0,99,0.01,,,0.05,weatherlink.com 1.10,2013-05-08 15:33:00,
2013-05-08 11:48:00,45.6,45.0,29.95,NW,311,4.0,16.0,99,0.01,,,0.05,weatherlink.com 1.10,2013-05-08 15:48:00,
2013-05-08 12:03:00,45.9,46.0,29.95,NW,316,3.0,11.0,99,0.00,,,0.05,weatherlink.com 1.10,2013-05-08 16:03:00,
2013-05-08 12:18:00,46.1,46.0,29.95,SSE,165,2.0,8.0,99,0.00,,,0.05,weatherlink.com 1.10,2013-05-08 16:18:00,
2013-05-08 12:33:00,46.0,46.0,29.94,NNW,338,6.0,9.0,99,0.01,,,0.06,weatherlink.com 1.10,2013-05-08 16:33:00,
2013-05-08 12:48:00,45.7,46.0,29.95,NW,320,4.0,9.0,99,0.01,,,0.06,weatherlink.com 1.10,2013-05-08 16:48:00,
2013-05-08 13:03:00,46.0,46.0,29.95,North,355,1.0,12.0,99,0.01,,,0.06,weatherlink.com 1.10,2013-05-08 17:03:00,
2013-05-08 13:18:00,46.0,46.0,29.95,WNW,303,3.0,13.0,99,0.00,,,0.06,weatherlink.com 1.10,2013-05-08 17:18:00,
2013-05-08 13:33:00,45.9,46.0,29.95,NW,325,2.0,11.0,99,0.00,,,0.06,weatherlink.com 1.10,2013-05-08 17:33:00,
2013-05-08 13:48:00,45.9,46.0,29.94,North,5,6.0,8.0,99,0.00,,,0.06,weatherlink.com 1.10,2013-05-08 17:48:00,
2013-05-08 14:03:00,46.9,47.0,29.94,NW,318,4.0,11.0,99,0.01,,,0.07,weatherlink.com 1.10,2013-05-08 18:03:00,
2013-05-08 14:18:00,47.1,47.0,29.95,WNW,301,4.0,12.0,99,0.01,,,0.07,weatherlink.com 1.10,2013-05-08 18:18:00,
2013-05-08 14:33:00,47.0,47.0,29.96,WNW,298,3.0,12.0,99,0.01,,,0.07,weatherlink.com 1.10,2013-05-08 18:33:00,
2013-05-08 14:49:00,47.3,47.0,29.96,WSW,238,1.0,11.0,99,0.01,,,0.07,weatherlink.com 1.10,2013-05-08 18:49:00,
2013-05-08 15:04:00,47.2,47.0,29.95,NNW,327,2.0,9.0,99,0.00,,,0.07,weatherlink.com 1.10,2013-05-08 19:04:00,
2013-05-08 15:19:00,47.8,48.0,29.95,NW,313,2.0,8.0,99,0.01,,,0.08,weatherlink.com 1.10,2013-05-08 19:19:00,
2013-05-08 15:34:00,47.8,47.0,29.95,West,271,1.0,11.0,98,0.01,,,0.08,weatherlink.com 1.10,2013-05-08 19:34:00,
2013-05-08 15:49:00,48.1,48.0,29.95,NW,317,4.0,9.0,98,0.01,,,0.08,weatherlink.com 1.10,2013-05-08 19:49:00,
2013-05-08 16:04:00,48.2,47.0,29.95,WSW,248,1.0,10.0,97,0.01,,,0.08,weatherlink.com 1.10,2013-05-08 20:04:00,
2013-05-08 16:19:00,48.5,48.0,29.95,SE,129,4.0,8.0,96,0.00,,,0.08,weatherlink.com 1.10,2013-05-08 20:19:00,
2013-05-08 16:34:00,48.4,47.0,29.95,WNW,300,1.0,7.0,95,0.01,,,0.09,weatherlink.com 1.10,2013-05-08 20:34:00,
2013-05-08 16:49:00,48.8,48.0,29.95,North,5,2.0,6.0,95,0.01,,,0.09,weatherlink.com 1.10,2013-05-08 20:49:00,
2013-05-08 17:04:00,48.8,47.0,29.95,West,281,3.0,14.0,94,0.01,,,0.09,weatherlink.com 1.10,2013-05-08 21:04:00,
2013-05-08 17:19:00,48.8,47.0,29.95,NE,40,5.0,11.0,94,0.01,,,0.09,weatherlink.com 1.10,2013-05-08 21:19:00,
2013-05-08 17:34:00,48.9,47.0,29.95,NW,319,2.0,8.0,94,0.00,,,0.09,weatherlink.com 1.10,2013-05-08 21:34:00,
2013-05-08 17:49:00,48.8,48.0,29.95,NNW,336,2.0,4.0,95,0.00,,,0.09,weatherlink.com 1.10,2013-05-08 21:49:00,
2013-05-08 18:04:00,48.3,47.0,29.95,NW,304,4.0,9.0,95,0.01,,,0.10,weatherlink.com 1.10,2013-05-08 22:04:00,
2013-05-08 18:19:00,48.2,47.0,29.96,WSW,250,1.0,9.0,96,0.01,,,0.10,weatherlink.com 1.10,2013-05-08 22:19:00,
2013-05-08 18:34:00,48.0,47.0,29.96,North,360,3.0,8.0,96,0.01,,,0.10,weatherlink.com 1.10,2013-05-08 22:34:00,
2013-05-08 18:49:00,47.7,47.0,29.96,NW,314,4.0,14.0,97,0.01,,,0.10,weatherlink.com 1.10,2013-05-08 22:49:00,
2013-05-08 19:04:00,47.6,47.0,29.96,WNW,301,2.0,12.0,98,0.00,,,0.10,weatherlink.com 1.10,2013-05-08 23:04:00,
2013-05-08 19:19:00,47.2,47.0,29.97,NW,304,8.0,15.0,98,0.00,,,0.10,weatherlink.com 1.10,2013-05-08 23:19:00,
2013-05-08 19:34:00,47.2,47.0,29.97,West,281,7.0,22.0,98,0.01,,,0.11,weatherlink.com 1.10,2013-05-08 23:34:00,
2013-05-08 19:49:00,47.2,47.0,29.97,NNW,328,4.0,18.0,98,0.01,,,0.11,weatherlink.com 1.10,2013-05-08 23:49:00,
2013-05-08 20:04:00,47.2,47.0,29.98,NNW,336,10.0,14.0,98,0.01,,,0.11,weatherlink.com 1.10,2013-05-09 00:04:00,
2013-05-08 20:19:00,47.2,47.0,29.98,SSW,204,0.0,12.0,99,0.01,,,0.11,weatherlink.com 1.10,2013-05-09 00:19:00,
2013-05-08 20:34:00,47.3,47.0,29.98,NNW,333,6.0,15.0,99,0.00,,,0.11,weatherlink.com 1.10,2013-05-09 00:34:00,
2013-05-08 20:49:00,47.2,47.0,29.99,NW,319,10.0,10.0,99,0.00,,,0.11,weatherlink.com 1.10,2013-05-09 00:49:00,
2013-05-08 21:04:00,47.3,47.0,29.99,NNW,328,3.0,13.0,99,0.00,,,0.11,weatherlink.com 1.10,2013-05-09 01:04:00,
2013-05-08 21:19:00,47.3,47.0,29.99,NW,309,5.0,10.0,99,0.00,,,0.11,weatherlink.com 1.10,2013-05-09 01:19:00,
2013-05-08 21:34:00,47.1,47.0,29.99,WSW,241,5.0,16.0,99,0.00,,,0.11,weatherlink.com 1.10,2013-05-09 01:34:00,
2013-05-08 21:49:00,46.9,47.0,30.00,NW,304,9.0,15.0,99,0.01,,,0.12,weatherlink.com 1.10,2013-05-09 01:49:00,
2013-05-08 22:04:00,46.9,47.0,30.00,West,266,5.0,16.0,99,0.01,,,0.12,weatherlink.com 1.10,2013-05-09 02:04:00,
2013-05-08 22:19:00,46.9,47.0,30.00,WNW,293,2.0,10.0,99,0.01,,,0.12,weatherlink.com 1.10,2013-05-09 02:19:00,
2013-05-08 22:34:00,46.6,46.0,30.01,WNW,298,10.0,13.0,99,0.01,,,0.12,weatherlink.com 1.10,2013-05-09 02:34:00,
2013-05-08 22:49:00,46.6,46.0,30.00,NW,314,7.0,17.0,99,0.00,,,0.12,weatherlink.com 1.10,2013-05-09 02:49:00,
2013-05-08 23:04:00,46.8,47.0,30.00,West,278,8.0,13.0,99,0.00,,,0.12,weatherlink.com 1.10,2013-05-09 03:04:00,
2013-05-08 23:19:00,46.7,47.0,30.00,West,265,11.0,13.0,99,0.00,,,0.12,weatherlink.com 1.10,2013-05-09 03:19:00,
2013-05-08 23:34:00,46.6,46.0,30.01,WSW,238,1.0,11.0,99,0.00,,,0.12,weatherlink.com 1.10,2013-05-09 03:34:00,
2013-05-08 23:49:00,46.6,46.0,30.01,WNW,300,6.0,10.0,99,0.01,,,0.13,weatherlink.com 1.10,2013-05-09 03:49:00,